TOURFACTS.DK  
Stats and Facts from Tour de France.

Tour de France 2018 starts in 39 days
  Riders   Stages   Teams   Summits   Yearly  


 
Search by year

After 2017 - Stage 21:
 14824 starters.
  5132 different riders.
  638 teams.
  2232 stages.
  456 restdays.
  439589.60 km.
  5653 abandonnees.


Top 3
GC
Christopher Froome86:20:55
Rigoberto Urán86:21:49
Romain Bardet86:23:15
Climb
Warren Barguil169 pt.
Primoz Roglic80 pt.
Thomas De Gendt64 pt.
Sprint
Michael Matthews359 pt.
André Greipel234 pt.
Edvald Boasson Hagen220 pt.
Youth
Simon Yates86:27:09
Louis Meintjes86:29:15
Emanuel Buchmann86:54:16
Facts from Tour de France 1938
  |   Stages.  |   Stage winners.  |   Days in yellow  |   Average speed.  |   Route.  |   Teams.  |   All riders.  |   Rookies.  |   Withdrawls.  |  

  |   GC.  |   Polka  |   Green  |   White  |   Summits. (In tour)  |   Summits. (Points)  |   Miscellaneous.  |  

Stage 10b on 15 - 07 - 1938
         Owning:    Félicien Vervaecke    
Pick a stage:  1 2 3 4a 4b 4c 5 6a 6b 7 8 9 10a 10b 10c 11 12 13 14 15 16 17a 17b 18 19 20a 20b 20c 21
  NarbonneBéziers | Dist: 27.00 km.

Average speed for all riders in stage:  38,045 km./hr.
    Place:Name:Team:Time:Km/h:
BELFélicien VervaeckeBELBelgium00:39:31  +  00:00:00=40,995 
ITAMario ViciniITAItaly00:40:06  +  00:00:35=40,399 
FRAMathias ClemensLUXLuxembourg00:40:11  +  00:00:40=40,315 
4 FRAAntonin MagneFRAFrance00:40:20  +  00:00:49=40,165 
5 BELEdward VissersBELBelgium00:40:35  +  00:01:04=39,918 
6 ITAGiordano CotturITAItaly00:40:37  +  00:01:06=39,885 
7 ITASettimo SimoniniITAItaly00:40:49  +  00:01:18=39,690 
8 FRARaoul LesueurFRACadets00:40:56  +  00:01:25=39,577 
9 LUXArsène MerschLUXLuxembourg00:40:56  +  00:01:25=39,577 
10 FRAYvan MarieFRACadets00:40:58  +  00:01:27=39,544 
11 FRAVictor CossonFRAFrance00:40:58  +  00:01:27=39,544 
12 BELMarcel KintBELBelgium00:40:59  +  00:01:28=39,528 
13 FRAAndré LeducqFRACadets00:41:07  +  00:01:36=39,400 
14 BELAlbertin DisseauxBELBelgium00:41:10  +  00:01:39=39,352 
15 BELJules LowieBELBelgium00:41:11  +  00:01:40=39,336 
16 NEDTheo MiddelkampNLDHolland00:41:11  +  00:01:40=39,336 
17 FRARobert TanneveauFRACadets00:41:18  +  00:01:47=39,225 
18 FRAJules RossiITAItaly00:41:18  +  00:01:47=39,225 
19 ITAGino BartaliITAItaly00:41:23  +  00:01:52=39,146 
20 BELFrançois NeuvilleBELBelgium00:41:32  +  00:02:01=39,005 
21 FRAGaston GrimbertFRABluets00:41:36  +  00:02:05=38,942 
22 LUXFrançois NeuensLUXLuxembourg00:41:47  +  00:02:16=38,771 
23 FRAPierre JaminetFRAFrance00:41:52  +  00:02:21=38,694 
24 ITAGlauco ServadeiITAItaly00:41:53  +  00:02:22=38,679 
25 FRAMarcel LaurentFRAFrance00:41:53  +  00:02:22=38,679 
26 GEROtto WeckerlingDEUGermany00:42:07  +  00:02:36=38,465 
27 FRAPierre GallienFRAFrance00:42:14  +  00:02:43=38,358 
28 FRAJean-Marie GoasmatFRAFrance00:42:17  +  00:02:46=38,313 
29 BELEmile Masson jr.BELBelgium00:42:20  +  00:02:49=38,268 
30 ITALuigi IntrozziITAItaly00:42:25  +  00:02:54=38,193 
31 FRAJean FontenayFRACadets00:42:27  +  00:02:56=38,163 
32 FRAGeorges NaisseFRAFrance00:42:27  +  00:02:56=38,163 
33 FRAFabien GalateauFRACadets00:42:28  +  00:02:57=38,148 
34 ITANello TroggiITAItaly00:42:28  +  00:02:57=38,148 
35 FRAJean FréchautFRAFrance00:42:32  +  00:03:01=38,088 
36 NEDJanus HellemonsNLDHolland00:42:34  +  00:03:03=38,058 
37 ITAVasco BergamaschiITAItaly00:42:37  +  00:03:06=38,013 
38 ESPMariano CañardoESPSpain00:42:39  +  00:03:08=37,984 
39 SUIRaymond LouviotFRACadets00:42:40  +  00:03:09=37,969 
40 ITAGiuseppe MartanoITAItaly00:42:44  +  00:03:13=37,910 
41 FRAPierre ClemensLUXLuxembourg00:42:53  +  00:03:22=37,777 
42 ITADante GianelloFRABluets00:42:55  +  00:03:24=37,748 
43 ESPJulián BerrenderoESPSpain00:42:58  +  00:03:27=37,704 
44 FRARobert OubronFRACadets00:42:58  +  00:03:27=37,704 
45 FRARaymond PassatFRACadets00:43:00  +  00:03:29=37,674 
46 NEDAntoon Van SchendelNLDHolland00:43:01  +  00:03:30=37,660 
47 ESPRafael RamosESPSpain00:43:06  +  00:03:35=37,587 
48 FRAAuguste MalletFRAFrance00:43:06  +  00:03:35=37,587 
49 LUXJean MajerusLUXLuxembourg00:43:08  +  00:03:37=37,558 
50 GERHerbert HauswaldDEUGermany00:43:10  +  00:03:39=37,529 
51 SUIEdgar HehlenCHESwitzerland00:43:14  +  00:03:43=37,471 
52 GERReinhold WendelDEUGermany00:43:19  +  00:03:48=37,399 
53 GERKarl HeideDEUGermany00:43:22  +  00:03:51=37,356 
54 BELRene WalschotBELBelgium00:43:23  +  00:03:52=37,342 
55 ITAEnrico MolloITAItaly00:43:23  +  00:03:52=37,342 
56 BELSylvère MaesBELBelgium00:43:30  +  00:03:59=37,241 
57 SUIPaul EgliCHESwitzerland00:43:34  +  00:04:03=37,184 
58 FRAAlbert BourlonFRABluets00:43:41  +  00:04:10=37,085 
59 GERJosef ArentsDEUGermany00:43:45  +  00:04:14=37,029 
60 BELConstant LauwersBELBelgium00:43:46  +  00:04:15=37,014 
61 SUIBruno CariniFRACadets00:43:49  +  00:04:18=36,972 
62 FRALucien Le GuevelFRABluets00:43:57  +  00:04:26=36,860 
63 ITAOreste BernardoniFRABluets00:44:07  +  00:04:36=36,721 
64 BELÉloi MeulenbergBELBelgium00:44:14  +  00:04:43=36,624 
65 ESPJacques AlzineESPSpain00:44:20  +  00:04:49=36,541 
66 ITAPierre SpaperiFRABluets00:44:40  +  00:05:09=36,269 
67 FRAJoseph GoutorbeFRABluets00:44:44  +  00:05:13=36,215 
68 SUIAlbert KnuttiCHESwitzerland00:44:58  +  00:05:27=36,027 
69 LUXChristophe DidierLUXLuxembourg00:45:01  +  00:05:30=35,987 
70 SUITheo PerretCHESwitzerland00:45:11  +  00:05:40=35,854 
71 ITAAldo BiniITAItaly00:45:56  +  00:06:25=35,269 
72 FRACamille LeroyFRABluets00:46:35  +  00:07:04=34,776 


Todays birthdays.

1907  Willy Kutschbach
1922  Virgilio Salimbeni
1924  Vittorio Seghezzi
1940  Gilberto Vendemiati
1947  Charles Genthon
1950  Herman Beysens
1955  René Martens
1968  Carlo Finco
1970  Michele Bartoli
1980  Maryan Hary
1982  Kevin De Weert




Visits: